timestamp,wind_dir_avg,wind_spd_max_dir,wind_spd_avg,wind_spd_gust,battery_voltage,lat,long
2018-04-04 00:00:00+00:00,342.0,343.0,9.25,11.02,,47.59359,-54.27349
2018-04-04 00:10:00+00:00,341.0,342.0,9.08,10.32,,47.59359,-54.27349
2018-04-04 00:20:00+00:00,345.0,342.0,9.35,10.81,,47.59359,-54.27349
2018-04-04 00:30:00+00:00,348.0,345.0,9.62,11.39,,47.59359,-54.27349
2018-04-04 00:40:00+00:00,348.0,345.0,8.8,10.67,,47.59359,-54.27349
2018-04-04 00:50:00+00:00,350.0,349.0,10.0,11.24,,47.59359,-54.27349
2018-04-04 01:00:00+00:00,345.0,347.0,9.55,12.17,,47.59359,-54.27349
2018-04-04 01:10:00+00:00,341.0,338.0,9.59,10.61,,47.59359,-54.27349
2018-04-04 01:20:00+00:00,352.0,353.0,9.98,11.39,,47.59359,-54.27349
2018-04-04 01:30:00+00:00,345.0,345.0,9.22,10.45,,47.59359,-54.27349
2018-04-04 01:40:00+00:00,340.0,340.0,10.44,11.65,,47.59359,-54.27349
2018-04-04 01:50:00+00:00,347.0,343.0,10.38,12.01,,47.59359,-54.27349
2018-04-04 02:00:00+00:00,347.0,354.0,8.31,9.58,,47.59359,-54.27349
2018-04-04 02:10:00+00:00,344.0,356.0,8.39,9.76,,47.59359,-54.27349
2018-04-04 02:20:00+00:00,335.0,341.0,8.16,9.45,,47.59359,-54.27349
2018-04-04 02:30:00+00:00,344.0,345.0,7.24,8.75,,47.59359,-54.27349
2018-04-04 02:40:00+00:00,349.0,349.0,7.7,8.81,,47.59359,-54.27349
2018-04-04 02:50:00+00:00,347.0,350.0,7.88,9.16,,47.59359,-54.27349
2018-04-04 03:00:00+00:00,335.0,325.0,7.99,9.16,,47.59359,-54.27349
2018-04-04 03:10:00+00:00,353.0,350.0,7.98,9.08,,47.59359,-54.27349
2018-04-04 03:20:00+00:00,351.0,354.0,7.82,9.06,,47.59359,-54.27349
2018-04-04 03:30:00+00:00,355.0,355.0,8.41,9.8,,47.59359,-54.27349
2018-04-04 03:40:00+00:00,358.0,0.0,8.38,9.73,,47.59359,-54.27349
2018-04-04 03:50:00+00:00,351.0,351.0,8.6,9.3,,47.59359,-54.27349
2018-04-04 04:00:00+00:00,351.0,349.0,8.09,9.26,,47.59359,-54.27349
2018-04-04 04:10:00+00:00,345.0,343.0,8.37,9.33,,47.59359,-54.27349
2018-04-04 04:20:00+00:00,350.0,357.0,7.95,8.8,,47.59359,-54.27349
2018-04-04 04:30:00+00:00,344.0,342.0,7.48,8.15,,47.59359,-54.27349
2018-04-04 04:40:00+00:00,332.0,329.0,6.19,7.55,,47.59359,-54.27349
2018-04-04 04:50:00+00:00,313.0,314.0,4.96,6.48,,47.59359,-54.27349
2018-04-04 05:00:00+00:00,325.0,324.0,4.49,5.58,,47.59359,-54.27349
2018-04-04 05:10:00+00:00,341.0,340.0,4.06,4.85,,47.59359,-54.27349
2018-04-04 05:20:00+00:00,316.0,306.0,3.59,4.54,,47.59359,-54.27349
2018-04-04 05:30:00+00:00,318.0,315.0,5.22,6.64,,47.59359,-54.27349
2018-04-04 05:40:00+00:00,318.0,315.0,6.01,6.69,,47.59359,-54.27349
2018-04-04 05:50:00+00:00,309.0,304.0,5.74,6.62,,47.59359,-54.27349
2018-04-04 06:00:00+00:00,319.0,325.0,4.59,5.55,,47.59359,-54.27349
2018-04-04 06:10:00+00:00,333.0,337.0,5.47,6.09,,47.59359,-54.27349
2018-04-04 06:20:00+00:00,337.0,339.0,4.98,5.67,,47.59359,-54.27349
2018-04-04 06:30:00+00:00,325.0,332.0,5.65,6.5,,47.59359,-54.27349
2018-04-04 06:40:00+00:00,329.0,329.0,5.79,6.53,,47.59359,-54.27349
2018-04-04 06:50:00+00:00,325.0,320.0,5.48,6.39,,47.59359,-54.27349
2018-04-04 07:00:00+00:00,331.0,334.0,5.7,6.91,,47.59359,-54.27349
2018-04-04 07:10:00+00:00,340.0,340.0,5.7,6.7,,47.59359,-54.27349
2018-04-04 07:20:00+00:00,333.0,326.0,6.02,6.92,,47.59359,-54.27349
2018-04-04 07:30:00+00:00,337.0,344.0,4.45,5.45,,47.59359,-54.27349
2018-04-04 07:40:00+00:00,352.0,347.0,3.21,3.95,,47.59359,-54.27349
2018-04-04 07:50:00+00:00,333.0,325.0,2.13,2.71,,47.59359,-54.27349
2018-04-04 08:00:00+00:00,324.0,324.0,0.92,1.49,,47.59359,-54.27349
2018-04-04 08:10:00+00:00,340.0,1.0,0.27,0.64,,47.59359,-54.27349
2018-04-04 08:20:00+00:00,322.0,338.0,0.34,0.57,,47.59359,-54.27349
2018-04-04 08:30:00+00:00,265.0,267.0,1.89,2.55,,47.59359,-54.27349
2018-04-04 08:40:00+00:00,296.0,292.0,2.16,2.46,,47.59359,-54.27349
2018-04-04 08:50:00+00:00,275.0,272.0,5.67,6.82,,47.59359,-54.27349
2018-04-04 09:00:00+00:00,284.0,291.0,5.15,6.29,,47.59359,-54.27349
2018-04-04 09:10:00+00:00,284.0,290.0,5.3,5.95,,47.59359,-54.27349
2018-04-04 09:20:00+00:00,270.0,264.0,4.91,5.85,,47.59359,-54.27349
2018-04-04 09:30:00+00:00,267.0,264.0,4.36,4.82,,47.59359,-54.27349
2018-04-04 09:40:00+00:00,260.0,259.0,4.81,5.23,,47.59359,-54.27349
2018-04-04 09:50:00+00:00,251.0,259.0,5.54,6.55,,47.59359,-54.27349
2018-04-04 10:00:00+00:00,258.0,258.0,5.31,6.48,,47.59359,-54.27349
2018-04-04 10:10:00+00:00,254.0,257.0,5.33,6.11,,47.59359,-54.27349
2018-04-04 10:20:00+00:00,252.0,251.0,4.69,5.14,,47.59359,-54.27349
2018-04-04 10:30:00+00:00,235.0,233.0,3.11,4.06,,47.59359,-54.27349
2018-04-04 10:40:00+00:00,251.0,251.0,3.21,3.69,,47.59359,-54.27349
2018-04-04 10:50:00+00:00,262.0,259.0,3.88,4.63,,47.59359,-54.27349
2018-04-04 11:00:00+00:00,229.0,232.0,4.11,5.05,,47.59359,-54.27349
2018-04-04 11:10:00+00:00,261.0,262.0,5.15,6.04,,47.59359,-54.27349
2018-04-04 11:20:00+00:00,230.0,233.0,4.59,5.5,,47.59359,-54.27349
2018-04-04 11:30:00+00:00,229.0,228.0,5.0,5.59,,47.59359,-54.27349
2018-04-04 11:40:00+00:00,245.0,250.0,4.18,4.65,,47.59359,-54.27349
2018-04-04 11:50:00+00:00,220.0,227.0,4.42,5.82,,47.59359,-54.27349
2018-04-04 12:00:00+00:00,254.0,256.0,4.31,5.03,,47.59359,-54.27349
2018-04-04 12:10:00+00:00,225.0,223.0,3.94,5.06,,47.59359,-54.27349
2018-04-04 12:20:00+00:00,205.0,207.0,4.54,5.01,,47.59359,-54.27349
2018-04-04 12:30:00+00:00,217.0,214.0,5.36,5.91,,47.59359,-54.27349
2018-04-04 12:40:00+00:00,242.0,244.0,6.39,7.67,,47.59359,-54.27349
2018-04-04 12:50:00+00:00,226.0,230.0,7.03,8.07,,47.59359,-54.27349
2018-04-04 13:00:00+00:00,227.0,224.0,8.23,9.46,,47.59359,-54.27349
2018-04-04 13:10:00+00:00,232.0,232.0,7.88,9.1,,47.59359,-54.27349
2018-04-04 13:20:00+00:00,224.0,226.0,7.49,8.47,,47.59359,-54.27349
2018-04-04 13:30:00+00:00,229.0,234.0,7.6,8.49,,47.59359,-54.27349
2018-04-04 13:40:00+00:00,231.0,229.0,8.17,8.97,,47.59359,-54.27349
2018-04-04 13:50:00+00:00,223.0,222.0,7.53,8.87,,47.59359,-54.27349
2018-04-04 14:00:00+00:00,222.0,223.0,8.22,9.07,,47.59359,-54.27349
2018-04-04 14:10:00+00:00,222.0,225.0,7.44,8.12,,47.59359,-54.27349
2018-04-04 14:20:00+00:00,217.0,220.0,8.03,9.36,,47.59359,-54.27349
2018-04-04 14:30:00+00:00,216.0,217.0,7.34,8.07,,47.59359,-54.27349
2018-04-04 14:40:00+00:00,216.0,219.0,7.75,8.72,,47.59359,-54.27349
2018-04-04 14:50:00+00:00,216.0,218.0,8.52,9.73,,47.59359,-54.27349
2018-04-04 15:00:00+00:00,215.0,217.0,8.49,9.25,,47.59359,-54.27349
2018-04-04 15:10:00+00:00,223.0,222.0,8.31,9.08,,47.59359,-54.27349
2018-04-04 15:20:00+00:00,225.0,228.0,8.08,9.09,,47.59359,-54.27349
2018-04-04 15:30:00+00:00,221.0,221.0,8.64,9.41,,47.59359,-54.27349
2018-04-04 15:40:00+00:00,220.0,222.0,6.71,7.71,,47.59359,-54.27349
2018-04-04 15:50:00+00:00,222.0,225.0,7.44,8.27,,47.59359,-54.27349
2018-04-04 16:00:00+00:00,220.0,227.0,8.4,9.58,,47.59359,-54.27349
2018-04-04 16:10:00+00:00,219.0,224.0,9.11,10.8,,47.59359,-54.27349
2018-04-04 16:20:00+00:00,221.0,224.0,9.84,10.67,,47.59359,-54.27349
2018-04-04 16:30:00+00:00,229.0,233.0,9.45,11.52,,47.59359,-54.27349
2018-04-04 16:40:00+00:00,231.0,235.0,9.31,10.93,,47.59359,-54.27349
2018-04-04 16:50:00+00:00,228.0,229.0,9.6,11.24,,47.59359,-54.27349
2018-04-04 17:00:00+00:00,223.0,220.0,8.99,10.34,,47.59359,-54.27349
2018-04-04 17:10:00+00:00,225.0,225.0,9.87,11.23,,47.59359,-54.27349
2018-04-04 17:20:00+00:00,225.0,225.0,10.28,11.2,,47.59359,-54.27349
2018-04-04 17:30:00+00:00,227.0,228.0,9.41,10.86,,47.59359,-54.27349
2018-04-04 17:40:00+00:00,229.0,230.0,8.49,9.56,,47.59359,-54.27349
2018-04-04 17:50:00+00:00,231.0,232.0,7.21,8.05,,47.59359,-54.27349
2018-04-04 18:00:00+00:00,221.0,222.0,7.53,8.35,,47.59359,-54.27349
2018-04-04 18:10:00+00:00,231.0,232.0,7.54,8.38,,47.59359,-54.27349
2018-04-04 18:20:00+00:00,230.0,222.0,6.88,7.93,,47.59359,-54.27349
2018-04-04 18:30:00+00:00,228.0,222.0,7.81,8.99,,47.59359,-54.27349
2018-04-04 18:40:00+00:00,230.0,227.0,7.53,8.35,,47.59359,-54.27349
2018-04-04 18:50:00+00:00,232.0,230.0,8.28,9.09,,47.59359,-54.27349
2018-04-04 19:00:00+00:00,232.0,229.0,6.95,7.83,,47.59359,-54.27349
2018-04-04 19:10:00+00:00,232.0,234.0,6.83,7.62,,47.59359,-54.27349
2018-04-04 19:20:00+00:00,228.0,238.0,6.85,7.9,,47.59359,-54.27349
2018-04-04 19:30:00+00:00,230.0,231.0,7.68,8.87,,47.59359,-54.27349
2018-04-04 19:40:00+00:00,237.0,243.0,8.94,10.69,,47.59359,-54.27349
2018-04-04 19:50:00+00:00,230.0,225.0,7.72,8.6,,47.59359,-54.27349
2018-04-04 20:00:00+00:00,228.0,227.0,9.58,11.24,,47.59359,-54.27349
2018-04-04 20:10:00+00:00,224.0,227.0,9.06,10.29,,47.59359,-54.27349
2018-04-04 20:20:00+00:00,220.0,223.0,6.8,8.34,,47.59359,-54.27349
2018-04-04 20:30:00+00:00,197.0,199.0,8.28,9.37,,47.59359,-54.27349
2018-04-04 20:40:00+00:00,204.0,203.0,10.4,12.06,,47.59359,-54.27349
2018-04-04 20:50:00+00:00,201.0,201.0,10.81,12.06,,47.59359,-54.27349
2018-04-04 21:00:00+00:00,190.0,185.0,11.55,15.33,,47.59359,-54.27349
2018-04-04 21:10:00+00:00,182.0,197.0,8.6,10.17,,47.59359,-54.27349
2018-04-04 21:20:00+00:00,175.0,176.0,7.82,8.64,,47.59359,-54.27349
2018-04-04 21:30:00+00:00,168.0,167.0,7.84,8.7,,47.59359,-54.27349
2018-04-04 21:40:00+00:00,170.0,165.0,6.77,8.14,,47.59359,-54.27349
2018-04-04 21:50:00+00:00,167.0,167.0,8.52,9.72,,47.59359,-54.27349
2018-04-04 22:00:00+00:00,180.0,181.0,9.61,10.97,,47.59359,-54.27349
2018-04-04 22:10:00+00:00,175.0,171.0,11.34,13.06,,47.59359,-54.27349
2018-04-04 22:20:00+00:00,181.0,179.0,10.25,14.47,,47.59359,-54.27349
2018-04-04 22:30:00+00:00,177.0,174.0,8.94,10.55,,47.59359,-54.27349
2018-04-04 22:40:00+00:00,170.0,173.0,9.32,14.9,,47.59359,-54.27349
2018-04-04 22:50:00+00:00,173.0,174.0,8.15,9.32,,47.59359,-54.27349
2018-04-04 23:00:00+00:00,169.0,164.0,7.72,8.61,,47.59359,-54.27349
2018-04-04 23:10:00+00:00,157.0,154.0,7.35,8.23,,47.59359,-54.27349
2018-04-04 23:20:00+00:00,173.0,173.0,7.39,7.97,,47.59359,-54.27349
2018-04-04 23:30:00+00:00,151.0,151.0,6.75,7.5,,47.59359,-54.27349
2018-04-04 23:40:00+00:00,163.0,157.0,7.8,8.91,,47.59359,-54.27349
2018-04-04 23:50:00+00:00,161.0,160.0,6.3,7.19,,47.59359,-54.27349
